[[{"header":{"parameterUnit":"m.s-1","parameterCategory":1,"la1":30.2991,"la2":30.254,"lo1":-89.0895,"lo2":-89.0444,"dy":0.0017,"dx":0.0017,"nx":28,"ny":28,"refTime":"2025-05-17T03:00:00:Z","depth":0,"parameterNumber":2,"parameterNumberName":"U-component_of_WINDS"},"data":[0,0,0,0,0,0,0,0,0,0,0,0,0,0,0,0,0,0,0,0,0,0,0,0,0,0,0,0,0,0,0,0,0,0,0,0,0,0,0,0,0,0,0,0,0,0,0,0,0,0,0,0,0,0,0,0,0,0,0.8075,0.8075,0,0.8107,0.8108,0.8108,0.8105,0.8105,0.8104,0.8104,0.8137,0.8138,0.814,0,0,0,0,0,0,0,0,0,0,0,0,0,0.8011,0.8012,0.8075,0.8075,0.8076,0.8107,0.8108,0.8108,0.8105,0.8105,0.8104,0.8104,0.8136,0.8138,0.814,0,0,0,0,0,0,0,0,0,0,0,0,0,0.804,0.8012,0.8075,0.8078,0.8079,0.8107,0.8108,0.8108,0.8106,0.8105,0.8104,0.8103,0.8136,0.8138,0.814,0.8167,0,0,0.8146,0.8147,0,0,0,0,0,0,0,0,0.8039,0.8043,0.8077,0.8078,0.8079,0.8102,0.8097,0.8128,0.8106,0.8095,0.8104,0.8103,0.8126,0.8129,0.8136,0.8168,0.817,0.8146,0.8147,0.8148,0.8149,0,0,0,0,0,0,0,0.8037,0.8041,0.8088,0.8078,0.8079,0.8078,0.8081,0.8103,0.8114,0.8096,0.8096,0.81,0.8126,0.8134,0.8137,0.817,0.8146,0.8148,0.8149,0.815,0.8225,0.8225,0,0,0,0,0,0,0.8034,0.804,0.8087,0.8089,0.8057,0.808,0.8084,0.8095,0.8114,0.8116,0.8101,0.81,0.8131,0.8135,0.8138,0.817,0.8148,0.815,0.8151,0.8224,0.8225,0.8226,0,0,0,0,0,0,0.8032,0.8038,0.8085,0.8064,0.807,0.8082,0.8095,0.8096,0.8104,0.8117,0.8119,0.8107,0.8131,0.8135,0.8159,0.8171,0.8151,0.8153,0.8223,0.8224,0.8225,0.8234,0,0,0,0,0,0,0.8031,0.8038,0.8048,0.8064,0.8071,0.8106,0.8095,0.8097,0.8108,0.8107,0.8124,0.8126,0.8131,0.8156,0.8161,0.8173,0.8154,0.8222,0.8223,0.8225,0.8233,0.8236,0.8238,0,0,0,0,0,0.8028,0.805,0.8049,0.8054,0.8085,0.8107,0.8111,0.8116,0.8109,0.8119,0.8127,0.8125,0.8169,0.8159,0.8164,0.8177,0.8221,0.8223,0.8225,0.8232,0.8235,0.8238,0,0,0,0,0,0,0.8035,0.8052,0.8051,0.8078,0.8091,0.8107,0.812,0.8119,0.8135,0.8133,0.8139,0.8142,0.8166,0.8174,0.8163,0.8204,0.8194,0.8197,0.8198,0.8201,0.8203,0.82,0.8156,0,0,0,0,0,0.8039,0.8056,0.807,0.8093,0.8099,0.8109,0.8119,0.8121,0.8135,0.814,0.815,0.8164,0.818,0.8191,0.8207,0.8234,0.8237,0.8246,0.8248,0.825,0.8252,0.8266,0.827,0.8232,0.8232,0.8231,0,0,0.8049,0.806,0.8071,0.8094,0.8105,0.8122,0.8113,0.8132,0.8144,0.8143,0.8166,0.8174,0.8189,0.8214,0.8226,0.8222,0.8264,0.8252,0.8254,0.8255,0.8268,0.8272,0.8275,0.8233,0.8233,0.8232,0,0,0.8075,0.8086,0.8105,0.8115,0.8131,0.8137,0.8142,0.8157,0.8162,0.8185,0.8184,0.8199,0.8228,0.8238,0.8247,0.8276,0.8275,0.8282,0.8294,0.8308,0.8311,0.8313,0.8323,0.8326,0.8284,0.8284,0.8284,0,0.8085,0.811,0.8115,0.8134,0.8144,0.8143,0.8163,0.8172,0.8193,0.8199,0.8194,0.8229,0.824,0.8267,0.8274,0.8282,0.8286,0.8279,0.831,0.8312,0.8315,0.8324,0.8328,0.8285,0.8285,0.8284,0.8284,0,0.8121,0.8139,0.8153,0.8172,0.8184,0.8203,0.821,0.8221,0.8222,0.8229,0.8252,0.8264,0.8282,0.8289,0.829,0.8316,0.8313,0.8309,0.8299,0.8319,0.8328,0.8331,0.8286,0.8285,0.8285,0.8285,0,0,0.8152,0.8173,0.8178,0.8186,0.8203,0.8217,0.8235,0.8253,0.8262,0.8276,0.8291,0.8315,0.8311,0.8321,0.8324,0.8336,0.8357,0.833,0.8331,0.8334,0.8384,0.8387,0.8391,0.8356,0.8357,0.8357,0.8383,0,0.8179,0.8212,0.8217,0.8246,0.8262,0.8261,0.8277,0.8289,0.8295,0.8309,0.8316,0.8332,0.8326,0.8332,0.8344,0.8352,0.8367,0.835,0.8369,0.837,0.8365,0.8395,0.8398,0.8422,0.8386,0.8387,0.8387,0,0.8215,0.823,0.826,0.8274,0.8281,0.8295,0.8311,0.8325,0.8338,0.8341,0.8352,0.8353,0.8372,0.8362,0.8387,0.8375,0.8384,0.8389,0.839,0.8391,0.838,0.8397,0.843,0.8433,0.8393,0.8392,0.8392,0,0.8234,0.8261,0.8282,0.8289,0.8306,0.8316,0.8323,0.8336,0.8346,0.8359,0.8366,0.8382,0.839,0.8402,0.8407,0.84,0.8432,0.8422,0.8435,0.8435,0.8441,0.8441,0.8475,0.8448,0.8448,0.8448,0.8448,0,0.8263,0.8281,0.829,0.8304,0.8324,0.8329,0.8348,0.8356,0.8366,0.838,0.8381,0.8394,0.84,0.8414,0.8419,0.8438,0.8442,0.8445,0.8446,0.8445,0.8444,0.845,0.8448,0.8449,0.8448,0.8448,0.8448,0,0.8287,0.8294,0.8317,0.8331,0.8335,0.8349,0.836,0.8373,0.8379,0.8396,0.8401,0.841,0.8426,0.8433,0.8453,0.8456,0.8478,0.8478,0.8474,0.8474,0.8485,0.8484,0.8524,0.8529,0.8499,0.8499,0.8499,0,0.8305,0.8319,0.8334,0.8343,0.8351,0.8366,0.8376,0.8381,0.8392,0.8407,0.8417,0.8434,0.8447,0.8473,0.8481,0.8496,0.8496,0.8509,0.8498,0.8496,0.8495,0.8494,0.8495,0.8511,0.8511,0.8511,0.8512,0,0.8336,0.8338,0.8352,0.8368,0.8379,0.8392,0.8404,0.8411,0.8418,0.8429,0.8446,0.8456,0.8476,0.8492,0.8507,0.8515,0.8514,0.8515,0.8518,0.8517,0.8514,0.8515,0.8478,0.8514,0.8514,0.8513,0.8513,0.8513,0.8357,0.8369,0.8381,0.8396,0.8406,0.8417,0.8429,0.8436,0.845,0.8467,0.8469,0.8486,0.8498,0.8519,0.8527,0.854,0.8537,0.8542,0.8543,0.8544,0.8545,0.8512,0.8543,0.8543,0.8543,0.8543,0.8543,0,0.8386,0.8394,0.8409,0.8425,0.8437,0.8435,0.8448,0.8458,0.8474,0.8485,0.8498,0.8516,0.8531,0.8541,0.8556,0.8565,0.8565,0.8568,0.8568,0.8569,0.8547,0.8542,0.8568,0.8568,0.8568,0.8568,0.8568,0.8568,0.8403,0.8423,0.8427,0.8452,0.8459,0.8476,0.8484,0.8493,0.8502,0.8523,0.8535,0.8541,0.8551,0.8567,0.8581,0.8583,0.8588,0.8592,0.8594,0.8573,0.8571,0.8568,0.8564,0.8593,0.8593,0.8615,0.8615,0.8615]},{"header":{"parameterUnit":"m.s-1","parameterCategory":1,"la1":30.2991,"la2":30.254,"lo1":-89.0895,"lo2":-89.0444,"dy":0.0017,"dx":0.0017,"nx":28,"ny":28,"refTime":"2025-05-17T03:00:00:Z","depth":0,"parameterNumber":3,"parameterNumberName":"V-component_of_WINDS"},"data":[0,0,0,0,0,0,0,0,0,0,0,0,0,0,0,0,0,0,0,0,0,0,0,0,0,0,0,0,0,0,0,0,0,0,0,0,0,0,0,0,0,0,0,0,0,0,0,0,0,0,0,0,0,0,0,0,0,0,3.382,3.3821,0,3.3881,3.3882,3.3883,3.3865,3.3864,3.3862,3.3861,3.392,3.3923,3.3925,0,0,0,0,0,0,0,0,0,0,0,0,0,3.3684,3.3687,3.382,3.3821,3.3822,3.3881,3.3882,3.3883,3.3865,3.3863,3.3862,3.3861,3.3919,3.3922,3.3925,0,0,0,0,0,0,0,0,0,0,0,0,0,3.3744,3.3688,3.382,3.382,3.3821,3.3881,3.3882,3.3883,3.3865,3.3863,3.3862,3.386,3.3918,3.3922,3.3926,3.3989,0,0,3.3938,3.394,0,0,0,0,0,0,0,0,3.3741,3.3749,3.3819,3.382,3.3821,3.3864,3.3855,3.3918,3.3866,3.3848,3.3861,3.3859,3.3902,3.3908,3.3923,3.3991,3.3994,3.3939,3.3941,3.3943,3.3944,0,0,0,0,0,0,0,3.3736,3.3746,3.3844,3.382,3.3821,3.3816,3.3822,3.3867,3.3885,3.385,3.3849,3.3856,3.3902,3.3919,3.3924,3.3995,3.3939,3.3942,3.3945,3.3946,3.4116,3.4118,0,0,0,0,0,0,3.3732,3.3743,3.3842,3.3846,3.3775,3.382,3.3827,3.3852,3.3884,3.3888,3.3858,3.3855,3.3913,3.392,3.3926,3.4002,3.3943,3.3947,3.3949,3.4114,3.4117,3.4119,0,0,0,0,0,0,3.3729,3.3741,3.384,3.3794,3.3806,3.3824,3.3852,3.3854,3.3871,3.3891,3.3893,3.3872,3.3912,3.3921,3.3973,3.4003,3.3949,3.3952,3.4112,3.4115,3.4118,3.4153,0,0,0,0,0,0,3.3726,3.374,3.3765,3.3795,3.3809,3.3887,3.3854,3.3856,3.3878,3.3875,3.3905,3.3908,3.3911,3.3967,3.3977,3.4008,3.3956,3.4109,3.4113,3.4117,3.4149,3.4157,3.4163,0,0,0,0,0,3.3721,3.3772,3.3767,3.3779,3.3841,3.3889,3.3897,3.3901,3.3881,3.3905,3.3918,3.3907,3.3998,3.3973,3.3984,3.4016,3.4108,3.4112,3.4117,3.4146,3.4155,3.4163,0,0,0,0,0,0,3.3745,3.3776,3.3771,3.3833,3.3859,3.3886,3.3917,3.3911,3.3942,3.3937,3.394,3.3947,3.4001,3.4014,3.3985,3.4078,3.405,3.4057,3.4068,3.4077,3.4084,3.408,3.3959,0,0,0,0,0,3.3757,3.3795,3.382,3.3873,3.3886,3.39,3.3921,3.3922,3.3948,3.3958,3.3974,3.3999,3.4033,3.4056,3.4088,3.4151,3.4156,3.4178,3.4185,3.4191,3.4197,3.423,3.424,3.4134,3.4134,3.4134,0,0,3.3784,3.3805,3.3829,3.3878,3.3898,3.3936,3.3909,3.395,3.3978,3.3964,3.4015,3.4028,3.4055,3.4113,3.4139,3.4125,3.4227,3.4197,3.4201,3.4204,3.4236,3.4246,3.4255,3.4138,3.4137,3.4137,0,0,3.3851,3.3872,3.3918,3.3939,3.3969,3.3978,3.3989,3.4017,3.4026,3.4077,3.4067,3.41,3.4159,3.4179,3.4197,3.4271,3.4261,3.4281,3.4318,3.435,3.4359,3.4366,3.4392,3.4402,3.4287,3.4287,3.4287,0,3.388,3.3938,3.3942,3.3985,3.4006,3.3996,3.4042,3.4061,3.4101,3.4115,3.4099,3.4173,3.4191,3.4253,3.4271,3.4286,3.4298,3.4278,3.4358,3.4365,3.4372,3.4397,3.4407,3.4289,3.4289,3.4289,3.4289,0,3.3971,3.4011,3.4045,3.4084,3.4109,3.4153,3.4163,3.4187,3.4186,3.4196,3.4248,3.4269,3.4305,3.432,3.4318,3.4381,3.4372,3.4357,3.4328,3.4384,3.4407,3.4417,3.4293,3.4292,3.4291,3.4291,0,0,3.4056,3.4097,3.4109,3.4127,3.416,3.419,3.4233,3.427,3.4291,3.4318,3.4353,3.4403,3.4389,3.441,3.441,3.4438,3.4495,3.442,3.442,3.4433,3.4565,3.4576,3.4587,3.4489,3.4491,3.4492,3.4563,0,3.4126,3.4203,3.4208,3.4277,3.4314,3.4304,3.4341,3.4365,3.4375,3.4406,3.4416,3.4452,3.4431,3.4443,3.4471,3.4483,3.4522,3.4478,3.4521,3.4522,3.4515,3.46,3.4612,3.4677,3.4572,3.4574,3.4575,0,3.4219,3.425,3.4323,3.435,3.4366,3.4399,3.4433,3.4464,3.4489,3.4494,3.4517,3.4513,3.4555,3.4525,3.4583,3.4553,3.4571,3.4579,3.4581,3.4586,3.4552,3.4606,3.4698,3.4708,3.4589,3.4588,3.4587,0,3.4273,3.4333,3.4385,3.44,3.4433,3.4457,3.4471,3.4495,3.4517,3.4546,3.4559,3.4592,3.4611,3.4636,3.464,3.4618,3.4698,3.4668,3.4702,3.4702,3.472,3.4719,3.4816,3.4731,3.4731,3.4731,3.4731,0,3.4351,3.4396,3.4409,3.4441,3.4491,3.4495,3.4543,3.4556,3.4577,3.461,3.4603,3.4634,3.4639,3.467,3.4674,3.4721,3.4729,3.4733,3.4734,3.4734,3.4733,3.4746,3.4741,3.4734,3.4733,3.4733,3.4732,0,3.442,3.4431,3.4487,3.4514,3.4521,3.4557,3.4579,3.4609,3.4617,3.4659,3.4669,3.4683,3.4719,3.4726,3.4769,3.4772,3.4827,3.4823,3.4819,3.4819,3.4852,3.4849,3.4961,3.4976,3.4882,3.4882,3.4883,0,3.447,3.4504,3.4535,3.4557,3.4573,3.4609,3.4631,3.4636,3.4659,3.4691,3.4716,3.4752,3.4781,3.484,3.4853,3.4885,3.4882,3.4919,3.4886,3.4885,3.4882,3.488,3.4883,3.4925,3.4926,3.4927,3.4927,0,3.4556,3.4559,3.4593,3.4628,3.4654,3.4682,3.4708,3.4726,3.4734,3.476,3.4798,3.482,3.4864,3.49,3.4932,3.4945,3.4938,3.4937,3.4947,3.4948,3.4944,3.4946,3.4836,3.4935,3.4934,3.4934,3.4933,3.4933,3.4617,3.4647,3.4673,3.471,3.473,3.4754,3.4784,3.4796,3.4828,3.4866,3.4866,3.4907,3.493,3.4973,3.4989,3.502,3.5008,3.5022,3.5026,3.5029,3.5032,3.4939,3.5026,3.5026,3.5025,3.5025,3.5025,0,3.4702,3.4719,3.4753,3.479,3.4818,3.4809,3.4837,3.4861,3.4898,3.4921,3.495,3.4993,3.5027,3.5043,3.5076,3.5098,3.5095,3.5107,3.5105,3.5108,3.5041,3.5029,3.5108,3.5108,3.5108,3.5108,3.5108,3.5108,3.475,3.4801,3.4807,3.4867,3.4883,3.4924,3.4941,3.4963,3.4981,3.503,3.5059,3.5069,3.5089,3.5123,3.5154,3.5157,3.5169,3.5183,3.5184,3.5121,3.5113,3.5105,3.5094,3.5185,3.5185,3.5249,3.525,3.525]}]]